{"data":{"norad_id":62289,"intl_designator":"2024-237Y","name":"STARLINK-33549","alt_names":[],"object_type":"PAYLOAD","status":"ACTIVE","operator":null,"country":"US","launch_date":"2024-12-08","launch_site_code":"AFETR","launch_vehicle":null,"mission":null,"orbit_class":"UNKNOWN","rcs_meters":null,"size_class":null,"mass_kg":null,"dimensions":null,"purposes":["comms"],"wikipedia_slug":null,"has_3d_model":false,"image_url":null,"decayed_at":null,"tle_current":{"epoch":"2026-09-21T19:24:31.900320Z","epoch_age_seconds":64613,"freshness":"FRESH","line1":"1 62289U 24237Y   26264.80870255  .00011696  00000+0  43390-3 0  9994","line2":"2 62289  42.9980 188.9666 0001030 267.3251  92.7483 15.27578287101181","mean_motion":15.27578287,"eccentricity":0.000103,"inclination_deg":42.998,"raan_deg":188.9666,"arg_perigee_deg":267.3251,"mean_anomaly_deg":92.7483,"bstar":0.0004339,"rev_number":10118,"period_min":94.266854422761,"perigee_km":482.34752268648,"apogee_km":483.76092807891,"semimajor_km":6861.1912253827,"source":"CELESTRAK","updated_at":"2026-09-22T09:00:49.570400Z"}}}